Miscellaneous Local Product
Issued by NWS Hastings, NE

Home | Current Version | Previous Version | Text Only | Print | Product List | Glossary Off
Versions: 1 2 3 4 5 6 7 8 9 10 11 12 13 14 15 16 17 18 19 20 21 22 23 24 25 26 27 28 29 30 31 32 33 34 35 36 37 38 39 40 41 42 43 44 45 46 47 48 49 50

000
AXUS43 KGID 190402
MISGRI

GID CWA HOURLY WEATHER ROUNDUP
NATIONAL WEATHER SERVICE HASTINGS NE
1100 PM CDT SAT OCT 18 2014

NOTE: "FAIR" INDICATES FEW OR NO CLOUDS BELOW 12,000 FEET WITH NO
SIGNIFICANT WEATHER AND/OR OBSTRUCTIONS TO VISIBILITY.

...SOUTH CENTRAL NEBRASKA...

CITY           SKY/WX    TMP DP  RH WIND       PRES   REMARKS
GRAND ISLAND   CLEAR     46  36  68 S13       30.13F
HASTINGS       CLEAR     45  36  70 MISG      30.13S
KEARNEY        CLEAR     45  37  76 SE6       30.13S
ORD            CLEAR     46  38  73 S9        30.08F
YORK           CLEAR     43  37  81 S8        30.15F
AURORA         CLEAR     41  34  76 S5        30.13F
LEXINGTON      CLEAR     49  41  75 S8        30.10F
HOLDREGE       CLEAR     48  39  70 CALM      30.12S
HEBRON         CLEAR     42  35  77 S5        30.16S

...NEBRASKA PANHANDLE...

CITY           SKY/WX    TMP DP  RH WIND       PRES   REMARKS
CHADRON        PTCLDY    47  41  80 CALM      29.96S
ALLIANCE       PTCLDY    45  39  79 S7        30.01R
SCOTTSBLUFF    CLEAR     50  42  74 E8        30.01S
SIDNEY         CLEAR     50  40  68 S12       30.05S

...WESTERN AND NORTH CENTRAL NEBRASKA...

CITY           SKY/WX    TMP DP  RH WIND       PRES   REMARKS
VALENTINE      CLEAR     55  40  56 S17       29.99F
AINSWORTH      CLEAR     51  40  64 S12       30.02S
ONEILL         CLEAR     46  40  78 S9        30.06F
BROKEN BOW     CLEAR     51  41  68 S15G22    30.07F
IMPERIAL       CLEAR     51  39  63 S10       30.08S
NORTH PLATTE   CLEAR     53  39  59 S10       30.07S
MCCOOK         CLEAR     49  40  71 S6        30.11R

...EASTERN NEBRASKA...

CITY           SKY/WX    TMP DP  RH WIND       PRES   REMARKS
NORFOLK        PTCLDY    46  37  71 SE9       30.11F
SO SIOUX CITY  PTCLDY    47  41  80 S6        30.12F
TEKAMAH        PTCLDY    39  36  89 S5        30.15F
COLUMBUS       CLEAR     43  34  70 S7        30.15F
ALBION         CLEAR     42  35  74 SE5       30.11F
OMAHA EPPLEY   CLEAR     47  40  76 S8        30.17F
OFFUTT AFB     CLEAR     38  38 100 E3        30.16F
MILLARD        CLEAR     43  41  93 CALM      30.17S
LINCOLN        CLEAR     44  37  76 S5        30.18S
NEBRASKA CITY  CLEAR     45  38  76 SE6       30.18S
BEATRICE       CLEAR     41  37  86 CALM      30.17S
FALLS CITY     CLEAR     43  40  89 E3        30.18F

...NORTHERN KANSAS...

CITY           SKY/WX    TMP DP  RH WIND       PRES   REMARKS
GOODLAND       PTCLDY    51  40  65 S13       30.11S
HILL CITY      PTCLDY    49  42  77 S7        30.14S
NORTON         CLEAR     50  39  66 S12       30.11S
PHILLIPSBURG   CLEAR     50  43  76 SE7       30.14S
SMITH CENTER   CLEAR     46  37  71 SE10      30.15S HAZE
BELOIT         CLEAR     46  41  81 SE6       30.15S
HAYS           PTCLDY    48  39  71 S7        30.16R
RUSSELL        MOCLDY    48  43  82 S8        30.14S
CONCORDIA      CLEAR     43  38  82 SE6       30.16S
SALINA         CLEAR     48  41  76 SE5       30.17F
TOPEKA         CLEAR     45  42  89 CALM      30.19F



USA.gov is the U.S. government's official web portal to all federal, state and local government web resources and services.